This demonstration page uses our WeatherBlox Daily Observations layout. Learn more.

Left ArrowRight Arrow

Hourly Observations for September 9, 2015

Temp ( °F °C ) Dew Point ( °F °C ) Humidity (%) Winds ( mph kmh ) Pressure ( in mb ) Visibility ( mi km ) Precip ( " mm )
12:53 am 00:53 Clear 62 16.7 59 15 90 90 Calm 30.02 1017 10 16 0.00 0.00
1:53 am 01:53 Clear 60 15.6 57 13.9 90 90 Calm 30.03 1017 10 16 0.00 0.00
2:53 am 02:53 Clear 60 15.6 56 13.3 86 86 Calm 30.02 1017 10 16 0.00 0.00
3:21 am 03:21 Mostly Clear 59 15 56 13.3 90 90 Calm 30.03 1017 9 14 0.00 0.00
3:36 am 03:36 Mostly Cloudy with Mist and Fog 58 14.4 57 13.9 97 97 Calm 30.06 1018 1 2 0.00 0.00
3:43 am 03:43 Mostly Cloudy with Fog 57 13.9 56 13.3 96 96 Calm 30.06 1018 0 0 0.00 0.00
3:53 am 03:53 Mostly Cloudy with Fog 58 14.4 57 13.9 97 97 Calm 30.03 1017 0 0 0.00 0.00
4:31 am 04:31 Mostly Cloudy with Mist and Fog 56 13.3 56 13.3 100 100 Calm 30.06 1018 2 3 0.00 0.00
4:36 am 04:36 Mostly Cloudy with Mist and Fog 56 13.3 56 13.3 100 100 Calm 30.06 1018 1 1 0.00 0.00
4:53 am 04:53 Mostly Cloudy with Fog 57 13.9 56 13.3 96 96 Calm 30.03 1017 0 0 0.00 0.00
5:18 am 05:18 Mostly Cloudy with Mist and Fog 57 14 55 13 94 94 Calm 30.06 1018 2 3 0.00 0.00
5:24 am 05:24 Partly Cloudy with Mist and Fog 56 13.3 55 12.8 97 97 Calm 30.06 1018 3 5 0.00 0.00
5:53 am 05:53 Clear with Mist and Fog 55 12.8 55 12.8 100 100 Calm 30.04 1017 4 6 0.00 0.00
5:56 am 05:56 Clear with Mist and Fog 56 13.3 55 12.8 97 97 Calm 30.06 1018 2 3 0.00 0.00
6:06 am 06:06 Clear with Fog 55 13 54 12 94 94 Calm 30.06 1018 1 1 0.00 0.00
6:14 am 06:14 Clear with Mist and Fog 56 13.3 54 12.2 93 93 Calm 30.06 1018 2 3 0.00 0.00
6:21 am 06:21 Clear with Mist and Fog 56 13.3 55 12.8 97 97 Calm 30.06 1018 5 8 0.00 0.00
6:35 am 06:35 Clear with Mist and Fog 56 13.3 55 12.8 97 97 Calm 30.06 1018 2 3 0.00 0.00
6:48 am 06:48 Clear with Mist and Fog 55 13 55 13 100 100 Calm 30.06 1018 3 5 0.00 0.00
6:53 am 06:53 Clear with Mist and Fog 56 13.3 55 12.8 97 97 Calm 30.04 1017 4 6 0.00 0.00
7:23 am 07:23 Partly Cloudy with Mist and Fog 56 13.3 55 12.8 97 97 Calm 30.09 1019 4 6 0.00 0.00
7:40 am 07:40 Partly Cloudy with Mist and Fog 56 13.3 55 12.8 97 97 Calm 30.09 1019 2 3 0.00 0.00
7:43 am 07:43 Mostly Cloudy with Mist and Fog 56 13.3 55 12.8 97 97 Calm 30.09 1019 1 1 0.00 0.00
7:53 am 07:53 Mostly Cloudy with Fog 56 13.3 56 13.3 100 100 Calm 30.06 1018 1 1 0.00 0.00
7:59 am 07:59 Cloudy with Mist and Fog 55 13 55 13 100 100 Calm 30.09 1019 2 3 0.00 0.00
8:06 am 08:06 Cloudy with Mist and Fog 57 14 57 14 100 100 Calm 30.09 1019 4 6 0.00 0.00
8:31 am 08:31 Partly Cloudy with Mist and Fog 61 16 61 16 100 100 Calm 30.06 1018 2 3 0.00 0.00
8:42 am 08:42 Sunny with Mist and Fog 63 17 61 16 94 94 Calm 30.06 1018 4 6 0.00 0.00
8:53 am 08:53 Sunny with Mist and Fog 64 17.8 62 16.7 93 93 S 5 7 30.06 1018 6 10 0.00 0.00
9:53 am 09:53 Sunny 70 21.1 64 17.8 82 82 S 3 6 30.04 1017 8 13 0.00 0.00
10:53 am 10:53 Sunny 74 23.3 63 17.2 69 69 SSE 6 9 30.03 1017 10 16 0.00 0.00
11:53 am 11:53 Sunny 77 25 63 17.2 62 62 S 8 13 30.00 1016 10 16 0.00 0.00
12:53 pm 12:53 Sunny 82 27.8 62 16.7 51 51 SSE 12 19 29.96 1015 10 16 0.00 0.00
1:53 pm 13:53 Mostly Sunny 80 26.7 61 16.1 52 52 S 8 13 29.96 1015 10 16 0.00 0.00
2:53 pm 14:53 Mostly Sunny 85 29.4 59 15 42 42 SSE 12 19 29.91 1013 10 16 0.00 0.03
3:53 pm 15:53 Sunny 86 30 59 15 40 40 SSE 17 28 29.87 1012 10 16 0.00 0.00
4:53 pm 16:53 Sunny 85 29.4 56 13.3 37 37 S 12 19 29.86 1011 10 16 0.00 0.00
5:53 pm 17:53 Sunny 81 27.2 56 13.3 42 42 SSE 12 19 29.86 1011 10 16 0.00 0.00
6:53 pm 18:53 Sunny 80 26.7 57 13.9 45 45 S 12 19 29.83 1010 10 16 0.00 0.00
7:13 pm 19:13 Partly Cloudy with Nearby Thunderstorms 79 26 57 14 48 48 S 12 19 29.77 1008 10 16 0.00 0.00
7:31 pm 19:31 Mostly Cloudy with Thunderstorms 75 23.9 62 16.7 64 64 S 14 22 29.80 1009 5 8 0.04 1.02
7:53 pm 19:53 Mostly Cloudy 71 21.7 64 17.8 79 79 SW 8 13 29.86 1011 10 16 0.15 3.81
8:53 pm 20:53 Clear 70 21.1 62 16.7 76 76 SE 8 13 29.88 1012 10 16 0.00 0.00
9:53 pm 21:53 Clear 65 18.3 61 16.1 87 87 ENE 15 24 29.93 1014 10 16 0.00 0.00
10:53 pm 22:53 Clear 64 17.8 60 15.6 87 87 E 18 30 29.96 1014 10 16 0.00 0.00
11:53 pm 23:53 Clear 66 18.9 58 14.4 75 75 ESE 13 20 29.93 1014 10 16 0.00 0.00

Powered by AerisWeather